Location: Demmingen
(48.6757°N, 10.4375°E)
Time: 23:22:20
(UTC+00:00)

CZ-2C R/B - Pass Details

Date: 23 May 2024
Orbit: 783 x 868 km, 98.3° (Epoch: 14 June)

Event Time Altitude Azimuth Distance (km) Brightness Sun altitude
Exits shadow 00:47:46 10° 145° (SE) 2,369 4.7 -17.7°
Reaches altitude 10° 00:47:51 10° 145° (SE) 2,338 4.7 -17.7°
Maximum altitude 00:52:50 53° 69° (ENE) 962 3.2 -17.3°
Drops below altitude 10° 00:57:53 10° 354° (N) 2,362 5.9 -17.0°
Sets 01:00:15 0° 350° (N) 3,302 6.7 -16.8°
